Rbgn^[z[y[W
メイン
   新天体発見情報
     Comet C/2016 X1 (Lemmon)
投稿するにはまず登録を

スレッド表示 | 新しいものから 前のトピック | 次のトピック | 下へ
投稿者 スレッド
佐藤裕久
投稿日時: 2016-12-27 11:47
モデレータ
登録日: 2005-6-12
居住地: 日本
投稿: 1797
オンライン
Comet C/2016 X1 (Lemmon)

G. J. Leonardは、12月8日UT、Mt Lemmonサーベイの1.5-m 反射望遠鏡で得たCCD画像から小惑星状
天体を発見した。
小惑星センターのPCCP webpageに公表後、佐藤英貴氏(東京都文京区, iTelescope Sierra Remote天文台,
0.61-m f/6.5 アストログラフ+輝度フィルター, Auberry, カリフォルニア州, 遠隔操作; 12月20.25-
20.26日UT、中程度の集光した6"のコマとp.a. 225°に向かって10" の尾の気配がある。3".8の円形範囲
で測定したこの彗星のw-バンド光度は20.6等であった)らCCD位置観測者によって彗星状と観測された。

発見位置は次のとおり、

     2016 UT             R.A. (2000) Decl.       Mag.   Observer
     Dec.  8.35740    4 32 24.95   +25 01 18.4   20.1   Leonard
           8.37305    4 32 24.64   +25 01 15.5   20.3     "
           8.37861    4 32 24.56   +25 01 15.3   20.0     "
           8.38290    4 32 24.43   +25 01 14.2   20.4     "

楕円軌道要素と位置推算表は次のとおり、

Orbital elements:
    C/2016 X1 (Lemmon)
Epoch 2019 Apr. 27.0 TT = JDT 2458600.5
T 2019 May 2.01086 TT                                   MPCW
q   7.5746218            (2000.0)            P               Q
z  +0.0010213      Peri.  224.57010     -0.44297125     -0.78447292
 ±0.0015451      Node   256.41079     +0.89532276     -0.36190225
e   0.9922641      Incl.   26.52105     +0.04662209     -0.50361592
From 29 observations 2016 Nov. 26-Dec. 21, mean residual 0".5.

    C/2016 X1 (Lemmon)
Epoch 2017 Feb. 16.0 TT = JDT 2457800.5
T 2019 May 1.77252 TT                                   MPCW
q   7.5743940            (2000.0)            P               Q
z  +0.0006821      Peri.  224.57773     -0.44305946     -0.78452476
 ±0.0015451      Node   256.40552     +0.89527545     -0.36199232
e   0.9948334      Incl.   26.50958     +0.04669246     -0.50347041
From 29 observations 2016 Nov. 26-Dec. 21, mean residual 0".5.

Ephemeris:
    C/2016 X1 (Lemmon)
Date    TT    R. A. (2000) Decl.     Delta      r     Elong.  Phase   m1
2016 11 21    04 37 52.4 +25 34 43   8.3673  9.3321   166.9     1.4  20.3
...
2016 12 06    04 33 09.6 +25 06 02   8.2984  9.2806   175.2     0.5  20.3
...
2016 12 14    04 30 40.0 +24 49 47   8.2907  9.2534   167.3     1.3  20.3
...
2016 12 20    04 28 53.1 +24 37 25   8.2979  9.2330   160.9     2.0  20.2
2016 12 21    04 28 35.9 +24 35 20   8.3002  9.2296   159.8     2.1  20.2
2016 12 22    04 28 18.9 +24 33 16   8.3027  9.2263   158.7     2.2  20.2
...
2016 12 28    04 26 42.0 +24 20 54   8.3241  9.2060   152.3     2.8  20.2
...
2017 01 05    04 24 48.9 +24 04 41   8.3683  9.1792   143.7     3.6  20.2
...
2017 01 20    04 22 20.1 +23 36 11   8.4927  9.1292   127.8     4.9  20.2

(CBET 4337、MPEC 2016-Y34)
スレッド表示 | 新しいものから 前のトピック | 次のトピック | トップ

投稿するにはまず登録を
 
© 1999-2013 Tsutomu Seki.